{"data":{"norad_id":68139,"intl_designator":"2026-048A","name":"SHIYAN-30 03","alt_names":[],"object_type":"PAYLOAD","status":"ACTIVE","operator":null,"country":"PRC","launch_date":"2026-03-12","launch_site_code":"XICLF","launch_vehicle":null,"mission":null,"orbit_class":"UNKNOWN","rcs_meters":null,"size_class":null,"mass_kg":null,"dimensions":null,"purposes":[],"wikipedia_slug":null,"has_3d_model":false,"image_url":null,"decayed_at":null,"tle_current":{"epoch":"2026-05-24T22:28:32.767968Z","epoch_age_seconds":74477,"freshness":"FRESH","line1":"1 68139U 26048A   26144.93649037  .00001674  00000+0  16582-3 0  9997","line2":"2 68139  35.0010  47.1968 0004221 159.9586 200.1286 14.91730656 10894","mean_motion":14.91730656,"eccentricity":0.0004221,"inclination_deg":35.001,"raan_deg":47.1968,"arg_perigee_deg":159.9586,"mean_anomaly_deg":200.1286,"bstar":0.00016582,"rev_number":1089,"period_min":96.532171823919,"perigee_km":589.59669500585,"apogee_km":595.4813396997,"semimajor_km":6970.6760173528,"source":"CELESTRAK","updated_at":"2026-05-25T13:38:07.578182Z"}}}